Weather History for New River MCAS, NC

Change the Weather History Date:

Friday, January 18, 2013

  Actual Average Record
Temperature  
Mean Temperature 43 °F -  
Max Temperature 50 °F 51 °F 68 °F (1999)
Min Temperature 36 °F 31 °F 15 °F (2005)
Degree Days  
Heating Degree Days 22    
Moisture  
Dew Point 31 °F    
Average Humidity 68    
Maximum Humidity 87    
Minimum Humidity 36    
Precipitation  
Precipitation 0.01 in - - ()
Sea Level Pressure  
Sea Level Pressure 30.36 in    
Wind  
Wind Speed 12 mph (North)    
Max Wind Speed 20 mph    
Max Gust Speed 28 mph    
Visibility 10 miles    
Events Rain    
Averages and records for this station are not official NWS values.
T = Trace of Precipitation, MM = Missing Value Source: NWS Daily Summary

Daily Weather History Graph

Daily Weather History Graph

Search for Another Location

Airport:

Trip Planner

Search our weather history database for the weather conditions in past years. The results will help you decide how hot, cold, wet, or windy it might be!

Date:

Astronomy

Jan. 18, 2013 Rise Set
Actual Time 7:15 AM EST 5:25 PM EST
Civil Twilight 6:48 AM EST 5:52 PM EST
Nautical Twilight 6:17 AM EST 6:23 PM EST
Astronomical Twilight 5:47 AM EST 6:53 PM EST
Moon 11:13 AM EST (1/18) No Moon Set
Length of Visible Light 11h 04m
Length of Day
10h 09m
Waxing Crescent, 47% of the Moon is Illuminated
Jan 18
Waxing Crescent
Jan 18
First Quarter
Jan 26
Full
Feb 3
Last Quarter
Feb 10
New

Hourly Weather History & Observations

Time (EST) Temp. Windchill Dew Point Humidity Pressure Visibility Wind Dir Wind Speed Gust Speed Precip Events Conditions
12:26 AM 42.8 °F 36.6 °F 37.4 °F 81% 30.00 in 10.0 mi North 11.5 mph 20.7 mph N/A   Overcast
12:56 AM 43.0 °F 35.4 °F 37.9 °F 82% 30.06 in 10.0 mi North 16.1 mph - 0.00 in Rain Light Rain
1:05 AM 42.8 °F 35.4 °F 37.4 °F 81% 30.07 in 10.0 mi NNW 15.0 mph 25.3 mph 0.00 in Rain Light Rain
1:56 AM 41.0 °F 31.9 °F 36.0 °F 82% 30.13 in 10.0 mi NNW 19.6 mph 27.6 mph 0.01 in Rain Light Rain
2:56 AM 39.9 °F 32.1 °F 35.1 °F 83% 30.14 in 10.0 mi North 13.8 mph 21.9 mph 0.00 in   Overcast
3:56 AM 39.9 °F 32.5 °F 35.1 °F 83% 30.23 in 10.0 mi NNW 12.7 mph 24.2 mph N/A   Overcast
4:32 AM 39.2 °F 32.5 °F 33.8 °F 81% 30.22 in 10.0 mi NNW 10.4 mph - N/A   Mostly Cloudy
4:40 AM 39.2 °F 32.0 °F 33.8 °F 81% 30.22 in 10.0 mi NNW 11.5 mph - N/A   Overcast
4:56 AM 39.0 °F 31.8 °F 34.0 °F 82% 30.25 in 10.0 mi NNW 11.5 mph - N/A   Mostly Cloudy
5:56 AM 39.0 °F 31.8 °F 34.0 °F 82% 30.28 in 10.0 mi NNW 11.5 mph - N/A   Mostly Cloudy
6:11 AM 39.2 °F 32.5 °F 33.8 °F 81% 30.29 in 10.0 mi NNW 10.4 mph 21.9 mph N/A   Scattered Clouds
6:56 AM 37.9 °F 30.5 °F 33.1 °F 83% 30.33 in 10.0 mi NNW 11.5 mph - N/A   Scattered Clouds
7:03 AM 37.4 °F 30.3 °F 33.8 °F 87% 30.32 in 10.0 mi NNW 10.4 mph - N/A   Mostly Cloudy
7:32 AM 37.4 °F 32.1 °F 33.8 °F 87% 30.34 in 10.0 mi North 6.9 mph - N/A   Scattered Clouds
7:56 AM 37.9 °F 31.5 °F 33.1 °F 83% 30.36 in 10.0 mi North 9.2 mph - N/A   Scattered Clouds
8:04 AM 37.4 °F 31.4 °F 32.0 °F 81% 30.36 in 10.0 mi NNW 8.1 mph - N/A   Mostly Cloudy
8:14 AM 39.2 °F 34.2 °F 33.8 °F 81% 30.37 in 9.0 mi NNW 6.9 mph - N/A   Scattered Clouds
8:56 AM 39.9 °F 33.4 °F 33.1 °F 77% 30.41 in 10.0 mi NNW 10.4 mph - N/A   Partly Cloudy
9:56 AM 42.1 °F 35.2 °F 34.0 °F 73% 30.46 in 10.0 mi NNW 12.7 mph - N/A   Scattered Clouds
10:56 AM 45.0 °F 38.5 °F 30.9 °F 58% 30.46 in 10.0 mi North 13.8 mph - N/A   Partly Cloudy
11:56 AM 48.0 °F - 28.9 °F 48% 30.45 in 10.0 mi North 16.1 mph 24.2 mph N/A   Partly Cloudy
12:56 PM 48.9 °F - 25.0 °F 39% 30.44 in 10.0 mi North 15.0 mph 27.6 mph N/A   Clear
1:56 PM 50.0 °F - 26.1 °F 39% 30.44 in 10.0 mi North 8.1 mph - N/A   Clear
2:56 PM 50.0 °F - 26.1 °F 39% 30.45 in 10.0 mi North 15.0 mph 20.7 mph N/A   Clear
3:56 PM 50.0 °F - 24.1 °F 36% 30.46 in 10.0 mi NNE 12.7 mph - N/A   Clear
4:56 PM 48.0 °F - 24.1 °F 39% 30.49 in 10.0 mi North 10.4 mph - N/A   Clear
5:56 PM 44.1 °F 40.8 °F 26.1 °F 49% 30.52 in 10.0 mi NNE 5.8 mph - N/A   Clear
6:56 PM 42.1 °F 37.1 °F 27.0 °F 55% 30.54 in 10.0 mi NNE 8.1 mph - N/A   Clear
7:56 PM 42.1 °F 36.6 °F 27.0 °F 55% 30.55 in 10.0 mi ENE 9.2 mph - N/A   Clear
8:56 PM 41.0 °F 35.2 °F 26.1 °F 55% 30.55 in 10.0 mi ENE 9.2 mph - N/A   Clear
9:56 PM 39.9 °F 34.5 °F 26.1 °F 58% 30.55 in 10.0 mi ENE 8.1 mph - N/A   Clear
10:56 PM 36.0 °F 32.1 °F 26.1 °F 67% 30.53 in 10.0 mi NE 4.6 mph - N/A   Clear
11:56 PM 36.0 °F - 26.1 °F 67% 30.53 in 10.0 mi Calm Calm - N/A   Clear